Location: Gettysburg
(39.8310°N, 77.2310°W)
Time: 01:34:50
(UTC-04:00)

ATLAS 2AS CENTAUR R/B - Visible Passes

Search period start: 26 May 2015 00:00
Search period end: 05 June 2015 00:00
Orbit: 912 x 1300 km, 63.7° (Epoch: 21 May)

Date Brightness Start Highest point End Pass type
(mag) Time Alt. Az. Time Alt. Az. Time Alt. Az.
26 May 5.9 00:32:32 10° NW 00:36:20 14° NNW 00:40:01 10° NNE visible
26 May 5.9 02:27:39 10° NNW 02:31:14 13° NNE 02:34:58 10° NE visible
26 May 5.0 04:18:09 10° NNW 04:25:11 32° NE 04:32:11 10° E visible
26 May 4.1 21:50:14 10° WSW 21:57:17 48° NW 22:04:53 10° NNE visible
26 May 5.7 23:45:48 10° WNW 23:50:34 17° NNW 23:55:18 10° NNE visible
27 May 6.0 01:42:34 10° NNW 01:45:22 12° N 01:48:14 10° NNE visible
27 May 5.4 03:33:32 10° NNW 03:39:46 24° NNE 03:46:04 10° E visible
27 May 3.4 21:05:03 10° SW 21:12:17 69° NW 21:20:10 10° NNE visible
27 May 5.5 22:59:16 10° WNW 23:04:56 21° NNW 23:10:40 10° NNE visible
28 May 6.1 00:56:50 10° NNW 00:59:27 12° N 01:02:05 10° NNE visible
28 May 5.7 02:48:57 10° NNW 02:54:11 18° NNE 02:59:35 10° ENE visible
28 May 4.0 04:39:20 10° NNW 04:47:16 54° NE 04:54:56 10° SE visible
28 May 5.1 22:13:05 10° W 22:19:27 28° NW 22:26:04 10° NNE visible
29 May 6.0 00:10:21 10° NW 00:13:35 13° N 00:16:45 10° NNE visible
29 May 5.9 02:04:16 10° NNW 02:08:27 15° NNE 02:12:50 10° NE visible
29 May 4.6 03:54:40 10° NNW 04:02:07 39° NE 04:09:26 10° ESE visible
29 May 4.6 21:27:17 10° WSW 21:34:09 39° NW 21:41:27 10° NNE visible
29 May 5.9 23:23:34 10° NW 23:27:47 15° NNW 23:31:53 10° NNE visible
30 May 6.0 01:19:26 10° NNW 01:22:38 13° N 01:26:00 10° NE visible
30 May 5.1 03:10:04 10° NNW 03:16:48 28° NE 03:23:32 10° E visible
30 May 3.1 05:00:44 10° NW 05:08:54 85° WSW 05:16:38 10° SSE visible
30 May 5.7 22:36:54 10° WNW 22:42:04 18° NNW 22:47:13 10° NNE visible
31 May 6.0 00:34:08 10° NNW 00:36:46 12° N 00:39:26 10° NNE visible
31 May 5.4 02:25:28 10° NNW 02:31:18 21° NNE 02:37:16 10° ENE visible
31 May 3.5 04:15:56 10° NNW 04:24:01 67° NE 04:31:47 10° SE visible
31 May 5.4 21:50:31 10° W 21:56:29 24° NNW 22:02:36 10° NNE visible
31 May 6.0 23:48:04 10° NNW 23:50:52 12° N 23:53:38 10° NNE visible
01 Jun 5.7 01:40:51 10° NNW 01:45:40 17° NNE 01:50:40 10° ENE visible
01 Jun 4.1 03:31:14 10° NNW 03:38:59 47° NE 03:46:32 10° ESE visible
01 Jun 5.0 21:04:28 10° W 21:11:04 32° NW 21:17:59 10° NNE visible
01 Jun 5.9 23:01:24 10° NW 23:05:01 13° NNW 23:08:32 10° NNE visible
02 Jun 5.8 00:56:08 10° NNW 00:59:54 14° NNE 01:03:51 10° NE visible
02 Jun 4.7 02:46:35 10° NNW 02:53:46 34° NE 03:00:52 10° ESE visible
02 Jun 3.0 04:37:26 10° NW 04:45:29 68° WSW 04:53:06 10° SSE visible
02 Jun 5.7 22:14:38 10° WNW 22:19:14 16° NNW 22:23:46 10° NNE visible
03 Jun 5.8 00:11:09 10° NNW 00:14:03 12° N 00:17:04 10° NNE visible
03 Jun 5.1 02:01:59 10° NNW 02:08:23 25° NNE 02:14:50 10° E visible
03 Jun 3.1 03:52:33 10° NNW 04:00:44 83° ENE 04:08:30 10° SE visible
03 Jun 5.6 21:28:04 10° WNW 21:33:34 20° NNW 21:39:07 10° NNE visible
03 Jun 5.9 23:25:33 10° NNW 23:28:09 12° N 23:30:46 10° NNE visible
04 Jun 5.4 01:17:24 10° NNW 01:22:50 19° NNE 01:28:25 10° ENE visible
04 Jun 3.7 03:07:48 10° NNW 03:15:48 58° NE 03:23:30 10° SE visible
04 Jun 3.6 04:59:28 10° NW 05:06:33 34° WSW 05:13:11 10° S visible
04 Jun 5.8 22:39:11 10° NNW 22:42:17 12° N 22:45:17 10° NNE visible
